Time,TemperatureF,DewpointF,PressureIn,WindDirection,WindDirectionDegrees,WindSpeedMPH,WindSpeedGustMPH,Humidity,HourlyPrecipIn,Conditions,Clouds,dailyrainin,SoftwareType,DateUTC
2014-11-25 00:01:00,42.1,37.9,30.49,East,82,0.0,0.0,85,0.00,,,0.00,meteobridge,2014-11-25 08:01:00,
2014-11-25 00:06:00,42.1,38.1,30.50,East,82,0.0,0.0,86,0.00,,,0.00,meteobridge,2014-11-25 08:06:00,
2014-11-25 00:11:00,41.7,37.6,30.49,East,82,0.0,0.0,85,0.00,,,0.00,meteobridge,2014-11-25 08:11:00,
2014-11-25 00:16:00,41.7,37.2,30.49,East,82,0.9,1.0,84,0.00,,,0.00,meteobridge,2014-11-25 08:16:00,
2014-11-25 00:21:00,41.7,37.2,30.50,East,82,0.0,0.0,84,0.00,,,0.00,meteobridge,2014-11-25 08:21:00,
2014-11-25 00:26:00,41.7,36.9,30.50,East,82,0.9,1.0,83,0.00,,,0.00,meteobridge,2014-11-25 08:26:00,
2014-11-25 00:31:00,41.9,37.4,30.49,East,82,0.0,0.0,84,0.00,,,0.00,meteobridge,2014-11-25 08:31:00,
2014-11-25 00:36:00,41.7,36.9,30.49,East,82,0.0,1.0,83,0.00,,,0.00,meteobridge,2014-11-25 08:36:00,
2014-11-25 00:41:00,41.7,36.9,30.49,East,82,0.0,0.0,83,0.00,,,0.00,meteobridge,2014-11-25 08:41:00,
2014-11-25 00:46:00,41.7,36.7,30.49,East,82,0.0,0.0,82,0.00,,,0.00,meteobridge,2014-11-25 08:46:00,
2014-11-25 00:51:00,41.7,36.7,30.49,East,82,0.0,0.0,82,0.00,,,0.00,meteobridge,2014-11-25 08:51:00,
2014-11-25 00:57:00,42.1,36.0,30.49,East,82,0.0,0.0,79,0.00,,,0.00,meteobridge,2014-11-25 08:57:00,
2014-11-25 01:02:00,42.1,37.0,30.49,East,82,0.0,0.0,82,0.00,,,0.00,meteobridge,2014-11-25 09:02:00,
2014-11-25 01:07:00,41.9,36.5,30.49,East,82,0.0,0.0,81,0.00,,,0.00,meteobridge,2014-11-25 09:07:00,
2014-11-25 01:12:00,42.1,36.7,30.49,East,82,0.0,0.0,81,0.00,,,0.00,meteobridge,2014-11-25 09:12:00,
2014-11-25 01:17:00,42.1,37.2,30.49,East,82,0.0,1.0,83,0.00,,,0.00,meteobridge,2014-11-25 09:17:00,
2014-11-25 01:22:00,41.9,37.0,30.49,East,82,0.0,1.0,83,0.00,,,0.00,meteobridge,2014-11-25 09:22:00,
2014-11-25 01:27:00,41.7,37.2,30.49,East,82,0.0,1.0,84,0.00,,,0.00,meteobridge,2014-11-25 09:27:00,
2014-11-25 01:32:00,41.7,37.2,30.49,East,82,0.0,1.0,84,0.00,,,0.00,meteobridge,2014-11-25 09:32:00,
2014-11-25 01:37:00,41.9,37.0,30.49,East,82,0.0,0.0,83,0.00,,,0.00,meteobridge,2014-11-25 09:37:00,
2014-11-25 01:42:00,41.9,36.9,30.49,East,82,0.0,0.0,82,0.00,,,0.00,meteobridge,2014-11-25 09:42:00,
2014-11-25 01:47:00,41.9,37.4,30.50,East,82,0.0,1.0,84,0.00,,,0.00,meteobridge,2014-11-25 09:47:00,
2014-11-25 01:52:00,41.7,37.2,30.50,East,82,0.0,1.0,84,0.00,,,0.00,meteobridge,2014-11-25 09:52:00,
2014-11-25 01:57:00,41.7,37.2,30.50,East,82,0.0,1.0,84,0.00,,,0.00,meteobridge,2014-11-25 09:57:00,
2014-11-25 02:02:00,41.7,37.6,30.50,East,82,0.0,1.0,85,0.00,,,0.00,meteobridge,2014-11-25 10:02:00,
2014-11-25 02:07:00,41.7,37.6,30.50,East,82,0.9,1.0,85,0.00,,,0.00,meteobridge,2014-11-25 10:07:00,
2014-11-25 02:12:00,41.7,37.6,30.50,East,82,0.0,0.0,85,0.00,,,0.00,meteobridge,2014-11-25 10:12:00,
2014-11-25 02:17:00,41.7,37.6,30.50,East,82,0.0,0.0,85,0.00,,,0.00,meteobridge,2014-11-25 10:17:00,
2014-11-25 02:22:00,41.7,37.2,30.50,East,82,0.0,0.0,84,0.00,,,0.00,meteobridge,2014-11-25 10:22:00,
2014-11-25 02:27:00,41.7,37.2,30.50,East,82,0.0,1.0,84,0.00,,,0.00,meteobridge,2014-11-25 10:27:00,
2014-11-25 02:32:00,41.7,37.2,30.50,East,82,0.0,0.0,84,0.00,,,0.00,meteobridge,2014-11-25 10:32:00,
2014-11-25 02:37:00,41.5,37.4,30.50,East,82,0.0,1.0,85,0.00,,,0.00,meteobridge,2014-11-25 10:37:00,
2014-11-25 02:42:00,41.5,37.0,30.49,East,82,0.0,0.0,84,0.00,,,0.00,meteobridge,2014-11-25 10:42:00,
2014-11-25 02:47:00,41.5,37.0,30.50,East,82,0.0,0.0,84,0.00,,,0.00,meteobridge,2014-11-25 10:47:00,
2014-11-25 02:52:00,41.5,37.0,30.50,East,82,0.0,1.0,84,0.00,,,0.00,meteobridge,2014-11-25 10:52:00,
2014-11-25 02:57:00,41.5,37.0,30.49,East,82,0.0,1.0,84,0.00,,,0.00,meteobridge,2014-11-25 10:57:00,
2014-11-25 03:02:00,41.7,37.2,30.50,East,82,0.0,1.0,84,0.00,,,0.00,meteobridge,2014-11-25 11:02:00,
2014-11-25 03:07:00,41.9,37.4,30.50,East,82,0.9,1.0,84,0.00,,,0.00,meteobridge,2014-11-25 11:07:00,
2014-11-25 03:13:00,42.3,38.1,30.50,East,82,0.0,1.0,85,0.00,,,0.00,meteobridge,2014-11-25 11:13:00,
2014-11-25 03:18:00,42.6,37.6,30.50,East,82,0.0,1.0,82,0.00,,,0.00,meteobridge,2014-11-25 11:18:00,
2014-11-25 03:23:00,43.2,37.8,30.50,East,83,0.0,1.0,81,0.00,,,0.00,meteobridge,2014-11-25 11:23:00,
2014-11-25 03:28:00,43.2,37.8,30.50,East,83,0.0,1.0,81,0.00,,,0.00,meteobridge,2014-11-25 11:28:00,
2014-11-25 03:33:00,43.2,37.8,30.50,East,83,0.0,1.0,81,0.00,,,0.00,meteobridge,2014-11-25 11:33:00,
2014-11-25 03:38:00,43.2,37.4,30.50,East,83,0.0,1.0,80,0.00,,,0.00,meteobridge,2014-11-25 11:38:00,
2014-11-25 03:43:00,43.2,36.7,30.50,East,83,0.0,1.0,78,0.00,,,0.00,meteobridge,2014-11-25 11:43:00,
2014-11-25 03:48:00,43.2,36.5,30.50,East,83,0.0,1.0,77,0.00,,,0.00,meteobridge,2014-11-25 11:48:00,
2014-11-25 03:53:00,43.2,36.1,30.50,East,83,0.0,0.0,76,0.00,,,0.00,meteobridge,2014-11-25 11:53:00,
2014-11-25 03:58:00,43.2,35.8,30.50,East,83,0.0,1.0,75,0.00,,,0.00,meteobridge,2014-11-25 11:58:00,
2014-11-25 04:03:00,43.2,35.4,30.50,East,83,0.0,1.0,74,0.00,,,0.00,meteobridge,2014-11-25 12:03:00,
2014-11-25 04:08:00,43.2,35.4,30.51,East,83,0.0,1.0,74,0.00,,,0.00,meteobridge,2014-11-25 12:08:00,
2014-11-25 04:13:00,43.2,35.1,30.51,East,83,0.0,1.0,73,0.00,,,0.00,meteobridge,2014-11-25 12:13:00,
2014-11-25 04:18:00,43.2,34.7,30.50,East,83,0.0,1.0,72,0.00,,,0.00,meteobridge,2014-11-25 12:18:00,
2014-11-25 04:23:00,43.3,34.5,30.50,East,83,0.0,1.0,71,0.00,,,0.00,meteobridge,2014-11-25 12:23:00,
2014-11-25 04:28:00,43.5,34.7,30.50,East,83,0.0,0.0,71,0.00,,,0.00,meteobridge,2014-11-25 12:28:00,
2014-11-25 04:33:00,43.5,34.0,30.50,East,83,0.0,1.0,69,0.00,,,0.00,meteobridge,2014-11-25 12:33:00,
2014-11-25 04:38:00,43.7,34.2,30.50,East,83,0.0,1.0,69,0.00,,,0.00,meteobridge,2014-11-25 12:38:00,
2014-11-25 04:43:00,43.5,34.0,30.50,East,83,0.0,1.0,69,0.00,,,0.00,meteobridge,2014-11-25 12:43:00,
2014-11-25 04:48:00,43.5,34.3,30.50,East,83,0.0,0.0,70,0.00,,,0.00,meteobridge,2014-11-25 12:48:00,
2014-11-25 04:53:00,43.3,34.9,30.50,East,82,0.0,1.0,72,0.00,,,0.00,meteobridge,2014-11-25 12:53:00,
2014-11-25 04:58:00,43.0,34.9,30.50,East,83,0.0,0.0,73,0.00,,,0.00,meteobridge,2014-11-25 12:58:00,
2014-11-25 05:03:00,42.8,34.0,30.50,East,83,0.0,1.0,71,0.00,,,0.00,meteobridge,2014-11-25 13:03:00,
2014-11-25 05:08:00,43.0,33.8,30.49,East,82,0.0,1.0,70,0.00,,,0.00,meteobridge,2014-11-25 13:08:00,
2014-11-25 05:13:00,43.2,34.0,30.50,East,83,0.0,1.0,70,0.00,,,0.00,meteobridge,2014-11-25 13:13:00,
2014-11-25 05:18:00,43.5,34.0,30.50,East,83,0.0,0.0,69,0.00,,,0.00,meteobridge,2014-11-25 13:18:00,
2014-11-25 05:23:00,43.9,34.7,30.50,East,83,0.0,0.0,70,0.00,,,0.00,meteobridge,2014-11-25 13:23:00,
2014-11-25 05:28:00,43.9,33.6,30.50,East,83,0.0,1.0,67,0.00,,,0.00,meteobridge,2014-11-25 13:28:00,
2014-11-25 05:33:00,44.1,34.2,30.50,East,83,0.0,1.0,68,0.00,,,0.00,meteobridge,2014-11-25 13:33:00,
2014-11-25 05:38:00,44.1,33.8,30.50,East,83,0.0,1.0,67,0.00,,,0.00,meteobridge,2014-11-25 13:38:00,
2014-11-25 05:43:00,44.1,34.2,30.50,East,83,0.0,0.0,68,0.00,,,0.00,meteobridge,2014-11-25 13:43:00,
2014-11-25 05:48:00,44.1,33.8,30.50,East,83,0.0,0.0,67,0.00,,,0.00,meteobridge,2014-11-25 13:48:00,
2014-11-25 05:53:00,43.9,35.4,30.50,East,82,0.0,1.0,72,0.00,,,0.00,meteobridge,2014-11-25 13:53:00,
2014-11-25 05:58:00,43.5,35.1,30.50,East,82,0.0,1.0,72,0.00,,,0.00,meteobridge,2014-11-25 13:58:00,
2014-11-25 06:03:00,43.3,35.6,30.51,East,83,0.0,0.0,74,0.00,,,0.00,meteobridge,2014-11-25 14:03:00,
2014-11-25 06:08:00,43.2,35.8,30.50,East,82,0.0,1.0,75,0.00,,,0.00,meteobridge,2014-11-25 14:08:00,
2014-11-25 06:13:00,43.0,35.2,30.51,East,82,0.0,1.0,74,0.00,,,0.00,meteobridge,2014-11-25 14:13:00,
2014-11-25 06:18:00,42.6,35.6,30.51,East,82,0.0,1.0,76,0.00,,,0.00,meteobridge,2014-11-25 14:18:00,
2014-11-25 06:23:00,42.6,36.3,30.51,East,82,0.0,0.0,78,0.00,,,0.00,meteobridge,2014-11-25 14:23:00,
2014-11-25 06:28:00,42.4,36.3,30.51,East,82,0.0,1.0,79,0.00,,,0.00,meteobridge,2014-11-25 14:28:00,
2014-11-25 06:33:00,42.4,37.0,30.51,East,82,0.9,1.0,81,0.00,,,0.00,meteobridge,2014-11-25 14:33:00,
2014-11-25 06:38:00,42.3,37.4,30.51,East,82,0.0,1.0,83,0.00,,,0.00,meteobridge,2014-11-25 14:38:00,
2014-11-25 06:44:00,42.1,37.2,30.51,East,82,0.9,1.0,83,0.00,,,0.00,meteobridge,2014-11-25 14:44:00,
2014-11-25 06:49:00,41.9,36.9,30.52,East,82,0.9,1.0,82,0.00,,,0.00,meteobridge,2014-11-25 14:49:00,
2014-11-25 06:54:00,41.7,35.8,30.52,East,83,0.0,0.0,79,0.00,,,0.00,meteobridge,2014-11-25 14:54:00,
2014-11-25 06:59:00,41.7,35.1,30.51,East,83,0.0,1.0,77,0.00,,,0.00,meteobridge,2014-11-25 14:59:00,
2014-11-25 07:04:00,41.9,34.5,30.51,East,82,0.0,0.0,75,0.00,,,0.00,meteobridge,2014-11-25 15:04:00,
2014-11-25 07:09:00,42.1,34.0,30.52,East,83,0.0,1.0,73,0.00,,,0.00,meteobridge,2014-11-25 15:09:00,
2014-11-25 07:14:00,42.1,33.4,30.51,East,82,0.0,0.0,71,0.00,,,0.00,meteobridge,2014-11-25 15:14:00,
2014-11-25 07:19:00,42.3,33.6,30.52,East,82,0.0,1.0,71,0.00,,,0.00,meteobridge,2014-11-25 15:19:00,
2014-11-25 07:24:00,42.3,33.8,30.52,East,82,0.0,1.0,72,0.00,,,0.00,meteobridge,2014-11-25 15:24:00,
2014-11-25 07:29:00,42.3,33.8,30.52,East,82,0.0,0.0,72,0.00,,,0.00,meteobridge,2014-11-25 15:29:00,
2014-11-25 07:34:00,42.3,33.8,30.52,East,82,0.0,0.0,72,0.00,,,0.00,meteobridge,2014-11-25 15:34:00,
2014-11-25 07:39:00,42.3,33.6,30.52,East,82,0.0,0.0,71,0.00,,,0.00,meteobridge,2014-11-25 15:39:00,
2014-11-25 07:44:00,42.3,33.8,30.52,East,82,0.0,0.0,72,0.00,,,0.00,meteobridge,2014-11-25 15:44:00,
2014-11-25 07:49:00,42.3,33.3,30.52,East,82,0.0,0.0,70,0.00,,,0.00,meteobridge,2014-11-25 15:49:00,
2014-11-25 07:54:00,42.4,33.4,30.52,East,83,0.0,0.0,70,0.00,,,0.00,meteobridge,2014-11-25 15:54:00,
2014-11-25 07:59:00,42.6,33.8,30.52,East,82,0.0,1.0,71,0.00,,,0.00,meteobridge,2014-11-25 15:59:00,
2014-11-25 08:04:00,43.0,33.8,30.52,East,82,0.0,1.0,70,0.00,,,0.00,meteobridge,2014-11-25 16:04:00,
2014-11-25 08:09:00,43.3,33.8,30.52,East,82,0.0,1.0,69,0.00,,,0.00,meteobridge,2014-11-25 16:09:00,
2014-11-25 08:14:00,43.7,34.2,30.52,East,82,0.9,1.0,69,0.00,,,0.00,meteobridge,2014-11-25 16:14:00,
2014-11-25 08:19:00,44.1,34.5,30.51,East,82,0.0,0.0,69,0.00,,,0.00,meteobridge,2014-11-25 16:19:00,
2014-11-25 08:24:00,44.4,35.2,30.51,East,82,0.0,0.0,70,0.00,,,0.00,meteobridge,2014-11-25 16:24:00,
2014-11-25 08:29:00,44.6,36.1,30.52,East,82,0.0,0.0,72,0.00,,,0.00,meteobridge,2014-11-25 16:29:00,
2014-11-25 08:34:00,44.6,36.1,30.52,East,82,0.0,0.0,72,0.00,,,0.00,meteobridge,2014-11-25 16:34:00,
2014-11-25 08:39:00,44.8,36.3,30.52,East,82,0.0,1.0,72,0.00,,,0.00,meteobridge,2014-11-25 16:39:00,
2014-11-25 08:44:00,45.0,36.5,30.52,East,82,0.0,1.0,72,0.00,,,0.00,meteobridge,2014-11-25 16:44:00,
2014-11-25 08:49:00,45.1,37.0,30.52,East,82,0.0,0.0,73,0.00,,,0.00,meteobridge,2014-11-25 16:49:00,
2014-11-25 08:54:00,45.1,36.7,30.52,East,82,0.0,0.0,72,0.00,,,0.00,meteobridge,2014-11-25 16:54:00,
2014-11-25 08:59:00,45.5,36.7,30.53,East,82,0.0,0.0,71,0.00,,,0.00,meteobridge,2014-11-25 16:59:00,
2014-11-25 09:04:00,45.9,37.8,30.53,East,82,0.0,1.0,73,0.00,,,0.00,meteobridge,2014-11-25 17:04:00,
2014-11-25 09:09:00,46.2,37.8,30.53,East,82,0.0,1.0,72,0.00,,,0.00,meteobridge,2014-11-25 17:09:00,
2014-11-25 09:14:00,46.6,38.1,30.53,East,82,0.0,1.0,72,0.00,,,0.00,meteobridge,2014-11-25 17:14:00,
2014-11-25 09:20:00,46.8,39.2,30.53,East,82,0.0,0.0,75,0.00,,,0.00,meteobridge,2014-11-25 17:20:00,
2014-11-25 09:25:00,46.9,39.4,30.53,East,82,0.0,0.0,75,0.00,,,0.00,meteobridge,2014-11-25 17:25:00,
2014-11-25 09:30:00,47.1,38.8,30.53,East,82,0.0,1.0,73,0.00,,,0.00,meteobridge,2014-11-25 17:30:00,
2014-11-25 09:35:00,47.5,37.8,30.53,East,82,0.0,0.0,69,0.00,,,0.00,meteobridge,2014-11-25 17:35:00,
2014-11-25 09:40:00,47.7,37.9,30.53,East,82,0.0,1.0,69,0.00,,,0.00,meteobridge,2014-11-25 17:40:00,
2014-11-25 09:45:00,48.0,37.6,30.53,East,82,0.0,0.0,67,0.00,,,0.00,meteobridge,2014-11-25 17:45:00,
2014-11-25 09:50:00,48.4,38.3,30.53,East,82,0.0,0.0,68,0.00,,,0.00,meteobridge,2014-11-25 17:50:00,
2014-11-25 09:55:00,48.7,38.3,30.53,East,83,0.0,1.0,67,0.00,,,0.00,meteobridge,2014-11-25 17:55:00,
2014-11-25 10:00:00,49.1,37.8,30.53,East,83,0.0,0.0,65,0.00,,,0.00,meteobridge,2014-11-25 18:00:00,
2014-11-25 10:05:00,49.5,38.1,30.53,East,83,0.0,0.0,65,0.00,,,0.00,meteobridge,2014-11-25 18:05:00,
2014-11-25 10:10:00,49.8,38.8,30.53,East,83,0.0,0.0,66,0.00,,,0.00,meteobridge,2014-11-25 18:10:00,
2014-11-25 10:15:00,50.2,37.6,30.53,East,83,0.0,1.0,62,0.00,,,0.00,meteobridge,2014-11-25 18:15:00,
2014-11-25 10:20:00,50.5,36.7,30.53,East,83,0.0,0.0,59,0.00,,,0.00,meteobridge,2014-11-25 18:20:00,
2014-11-25 10:25:00,51.3,37.0,30.53,East,83,0.0,0.0,58,0.00,,,0.00,meteobridge,2014-11-25 18:25:00,
2014-11-25 10:30:00,51.6,36.0,30.53,East,83,0.0,0.0,55,0.00,,,0.00,meteobridge,2014-11-25 18:30:00,
2014-11-25 10:35:00,51.8,36.7,30.53,East,83,0.0,0.0,56,0.00,,,0.00,meteobridge,2014-11-25 18:35:00,
2014-11-25 10:40:00,52.2,37.8,30.53,East,83,0.0,0.0,58,0.00,,,0.00,meteobridge,2014-11-25 18:40:00,
2014-11-25 10:45:00,52.2,36.0,30.53,East,83,0.0,0.0,54,0.00,,,0.00,meteobridge,2014-11-25 18:45:00,
2014-11-25 10:50:00,52.5,36.0,30.53,East,83,0.0,1.0,53,0.00,,,0.00,meteobridge,2014-11-25 18:50:00,
2014-11-25 10:55:00,52.7,36.0,30.53,East,83,0.0,0.0,53,0.00,,,0.00,meteobridge,2014-11-25 18:55:00,
2014-11-25 11:00:00,53.1,36.0,30.52,East,83,0.0,1.0,52,0.00,,,0.00,meteobridge,2014-11-25 19:00:00,
2014-11-25 11:05:00,53.2,35.6,30.52,SSE,151,0.9,1.0,51,0.00,,,0.00,meteobridge,2014-11-25 19:05:00,
2014-11-25 11:10:00,53.6,33.8,30.52,SSE,149,0.0,1.0,47,0.00,,,0.00,meteobridge,2014-11-25 19:10:00,
2014-11-25 11:15:00,54.1,34.3,30.52,SSE,149,0.0,0.0,47,0.00,,,0.00,meteobridge,2014-11-25 19:15:00,
2014-11-25 11:20:00,54.5,35.8,30.51,South,172,0.0,0.0,49,0.00,,,0.00,meteobridge,2014-11-25 19:20:00,
2014-11-25 11:25:00,54.7,35.4,30.51,South,172,0.0,0.0,48,0.00,,,0.00,meteobridge,2014-11-25 19:25:00,
2014-11-25 11:30:00,54.9,36.5,30.50,South,169,0.0,0.0,50,0.00,,,0.00,meteobridge,2014-11-25 19:30:00,
2014-11-25 11:35:00,55.0,36.1,30.50,South,169,0.0,0.0,49,0.00,,,0.00,meteobridge,2014-11-25 19:35:00,
2014-11-25 11:40:00,55.2,37.4,30.50,South,170,0.0,0.0,51,0.00,,,0.00,meteobridge,2014-11-25 19:40:00,
2014-11-25 11:45:00,55.4,35.4,30.50,South,170,0.0,0.0,47,0.00,,,0.00,meteobridge,2014-11-25 19:45:00,
2014-11-25 11:50:00,55.2,35.4,30.49,South,170,0.0,0.0,47,0.00,,,0.00,meteobridge,2014-11-25 19:50:00,
2014-11-25 11:55:00,55.2,36.9,30.49,South,170,0.0,0.0,50,0.00,,,0.00,meteobridge,2014-11-25 19:55:00,
2014-11-25 12:00:00,55.6,37.2,30.49,South,169,0.0,0.0,50,0.00,,,0.00,meteobridge,2014-11-25 20:00:00,
2014-11-25 12:05:00,55.8,37.4,30.49,South,169,0.0,0.0,50,0.00,,,0.00,meteobridge,2014-11-25 20:05:00,
2014-11-25 12:10:00,55.9,36.5,30.48,South,180,0.0,0.0,48,0.00,,,0.00,meteobridge,2014-11-25 20:10:00,
2014-11-25 12:16:00,56.1,36.7,30.48,South,180,0.0,0.0,48,0.00,,,0.00,meteobridge,2014-11-25 20:16:00,
2014-11-25 12:21:00,56.1,37.2,30.48,South,180,0.0,0.0,49,0.00,,,0.00,meteobridge,2014-11-25 20:21:00,
2014-11-25 12:26:00,56.3,38.5,30.47,South,180,0.0,0.0,51,0.00,,,0.00,meteobridge,2014-11-25 20:26:00,
2014-11-25 12:31:00,56.3,40.3,30.47,South,180,0.0,0.0,55,0.00,,,0.00,meteobridge,2014-11-25 20:31:00,
2014-11-25 12:36:00,56.7,38.3,30.47,South,179,0.0,0.0,50,0.00,,,0.00,meteobridge,2014-11-25 20:36:00,
2014-11-25 12:41:00,56.8,37.4,30.47,South,179,0.0,0.0,48,0.00,,,0.00,meteobridge,2014-11-25 20:41:00,
2014-11-25 12:46:00,57.0,38.5,30.47,South,179,0.0,0.0,50,0.00,,,0.00,meteobridge,2014-11-25 20:46:00,
2014-11-25 12:51:00,57.0,39.0,30.46,South,179,0.0,0.0,51,0.00,,,0.00,meteobridge,2014-11-25 20:51:00,
2014-11-25 12:56:00,57.4,37.4,30.46,SSE,160,0.0,1.0,47,0.00,,,0.00,meteobridge,2014-11-25 20:56:00,
2014-11-25 13:01:00,57.4,40.8,30.46,SSE,160,0.0,0.0,54,0.00,,,0.00,meteobridge,2014-11-25 21:01:00,
2014-11-25 13:06:00,57.2,40.6,30.46,SSE,160,0.0,0.0,54,0.00,,,0.00,meteobridge,2014-11-25 21:06:00,
2014-11-25 13:11:00,57.0,40.5,30.46,SSE,160,0.0,1.0,54,0.00,,,0.00,meteobridge,2014-11-25 21:11:00,
2014-11-25 13:16:00,56.8,41.4,30.46,SSE,160,0.0,0.0,56,0.00,,,0.00,meteobridge,2014-11-25 21:16:00,
2014-11-25 13:21:00,56.8,42.3,30.46,SSE,160,0.0,1.0,58,0.00,,,0.00,meteobridge,2014-11-25 21:21:00,
2014-11-25 13:26:00,56.8,41.7,30.46,SSE,160,0.0,0.0,57,0.00,,,0.00,meteobridge,2014-11-25 21:26:00,
2014-11-25 13:31:00,57.0,40.1,30.46,West,262,0.0,1.0,53,0.00,,,0.00,meteobridge,2014-11-25 21:31:00,
2014-11-25 13:36:00,57.6,39.0,30.46,SE,129,0.0,1.0,50,0.00,,,0.00,meteobridge,2014-11-25 21:36:00,
2014-11-25 13:41:00,57.6,43.7,30.46,SE,129,0.0,0.0,60,0.00,,,0.00,meteobridge,2014-11-25 21:41:00,
2014-11-25 13:46:00,57.6,40.6,30.46,SE,131,0.0,0.0,53,0.00,,,0.00,meteobridge,2014-11-25 21:46:00,
2014-11-25 13:51:00,57.4,41.9,30.45,SE,131,0.0,1.0,56,0.00,,,0.00,meteobridge,2014-11-25 21:51:00,
2014-11-25 13:56:00,57.2,43.0,30.45,SE,131,0.0,0.0,59,0.00,,,0.00,meteobridge,2014-11-25 21:56:00,
2014-11-25 14:01:00,57.4,40.5,30.45,SSE,165,0.0,0.0,53,0.00,,,0.00,meteobridge,2014-11-25 22:01:00,
2014-11-25 14:06:00,57.4,43.7,30.45,SSE,165,0.0,0.0,60,0.00,,,0.00,meteobridge,2014-11-25 22:06:00,
2014-11-25 14:11:00,57.2,43.0,30.45,SSE,165,0.0,0.0,59,0.00,,,0.00,meteobridge,2014-11-25 22:11:00,
2014-11-25 14:16:00,56.8,44.4,30.45,SSE,165,0.0,0.0,63,0.00,,,0.00,meteobridge,2014-11-25 22:16:00,
2014-11-25 14:21:00,56.7,44.2,30.45,SSE,165,0.0,0.0,63,0.00,,,0.00,meteobridge,2014-11-25 22:21:00,
2014-11-25 14:26:00,56.1,43.3,30.45,SSE,165,0.0,0.0,62,0.00,,,0.00,meteobridge,2014-11-25 22:26:00,
2014-11-25 14:31:00,55.9,43.5,30.44,SSE,165,0.0,0.0,63,0.00,,,0.00,meteobridge,2014-11-25 22:31:00,
2014-11-25 14:36:00,55.8,44.6,30.44,SSE,165,0.0,0.0,66,0.00,,,0.00,meteobridge,2014-11-25 22:36:00,
2014-11-25 14:41:00,55.8,44.2,30.44,SSE,165,0.0,0.0,65,0.00,,,0.00,meteobridge,2014-11-25 22:41:00,
2014-11-25 14:46:00,55.6,44.1,30.44,SSE,165,0.0,0.0,65,0.00,,,0.00,meteobridge,2014-11-25 22:46:00,
2014-11-25 14:51:00,55.6,44.8,30.44,SSE,165,0.0,0.0,67,0.00,,,0.00,meteobridge,2014-11-25 22:51:00,
2014-11-25 14:56:00,55.2,44.8,30.44,SSE,165,0.0,0.0,68,0.00,,,0.00,meteobridge,2014-11-25 22:56:00,
2014-11-25 15:01:00,55.0,44.6,30.44,SSE,165,0.0,0.0,68,0.00,,,0.00,meteobridge,2014-11-25 23:01:00,
2014-11-25 15:06:00,55.0,45.1,30.44,SSE,165,0.0,0.0,69,0.00,,,0.00,meteobridge,2014-11-25 23:06:00,
2014-11-25 15:11:00,54.9,44.1,30.44,SSE,165,0.0,0.0,67,0.00,,,0.00,meteobridge,2014-11-25 23:11:00,
2014-11-25 15:17:00,54.9,44.4,30.44,SSE,165,0.0,0.0,68,0.00,,,0.00,meteobridge,2014-11-25 23:17:00,
2014-11-25 15:22:00,54.7,45.5,30.44,SSE,165,0.0,0.0,71,0.00,,,0.00,meteobridge,2014-11-25 23:22:00,
2014-11-25 15:27:00,54.3,45.1,30.44,SSE,165,0.0,0.0,71,0.00,,,0.00,meteobridge,2014-11-25 23:27:00,
2014-11-25 15:32:00,54.0,45.1,30.44,SSE,165,0.0,0.0,72,0.00,,,0.00,meteobridge,2014-11-25 23:32:00,
2014-11-25 15:37:00,53.8,45.7,30.44,SSE,165,0.0,0.0,74,0.00,,,0.00,meteobridge,2014-11-25 23:37:00,
2014-11-25 15:42:00,53.4,46.0,30.44,SSE,165,0.0,0.0,76,0.00,,,0.00,meteobridge,2014-11-25 23:42:00,
2014-11-25 15:47:00,53.2,46.2,30.44,SSE,165,0.0,0.0,77,0.00,,,0.00,meteobridge,2014-11-25 23:47:00,
2014-11-25 15:52:00,53.1,46.0,30.43,SSE,165,0.0,0.0,77,0.00,,,0.00,meteobridge,2014-11-25 23:52:00,
2014-11-25 15:57:00,52.9,46.2,30.43,SSE,165,0.0,0.0,78,0.00,,,0.00,meteobridge,2014-11-25 23:57:00,
2014-11-25 16:02:00,52.7,46.4,30.43,SSE,165,0.0,0.0,79,0.00,,,0.00,meteobridge,2014-11-26 00:02:00,
2014-11-25 16:07:00,52.3,46.4,30.43,SSE,165,0.0,0.0,80,0.00,,,0.00,meteobridge,2014-11-26 00:07:00,
2014-11-25 16:12:00,52.2,46.6,30.43,SSE,165,0.0,0.0,81,0.00,,,0.00,meteobridge,2014-11-26 00:12:00,
2014-11-25 16:17:00,52.2,46.6,30.43,SSE,165,0.0,0.0,81,0.00,,,0.00,meteobridge,2014-11-26 00:17:00,
2014-11-25 16:22:00,52.0,46.6,30.43,SSE,165,0.0,0.0,82,0.00,,,0.00,meteobridge,2014-11-26 00:22:00,
2014-11-25 16:27:00,51.6,46.6,30.43,SSE,165,0.0,0.0,83,0.00,,,0.00,meteobridge,2014-11-26 00:27:00,
2014-11-25 16:32:00,51.3,46.6,30.43,SSE,165,0.0,0.0,84,0.00,,,0.00,meteobridge,2014-11-26 00:32:00,
2014-11-25 16:37:00,51.1,46.4,30.43,SSE,165,0.0,0.0,84,0.00,,,0.00,meteobridge,2014-11-26 00:37:00,
2014-11-25 16:42:00,50.7,46.4,30.43,SSE,165,0.0,0.0,85,0.00,,,0.00,meteobridge,2014-11-26 00:42:00,
2014-11-25 16:47:00,50.5,46.2,30.43,SSE,165,0.0,0.0,85,0.00,,,0.00,meteobridge,2014-11-26 00:47:00,
2014-11-25 16:52:00,50.4,46.0,30.43,SSE,165,0.0,0.0,85,0.00,,,0.00,meteobridge,2014-11-26 00:52:00,
2014-11-25 16:57:00,50.0,46.2,30.43,SSE,165,0.0,0.0,87,0.00,,,0.00,meteobridge,2014-11-26 00:57:00,
2014-11-25 17:02:00,49.6,45.9,30.42,SSE,165,0.0,0.0,87,0.00,,,0.00,meteobridge,2014-11-26 01:02:00,
2014-11-25 17:07:00,49.3,45.9,30.42,SSE,165,0.0,0.0,88,0.00,,,0.00,meteobridge,2014-11-26 01:07:00,
2014-11-25 17:12:00,49.1,45.7,30.42,SSE,165,0.0,0.0,88,0.00,,,0.00,meteobridge,2014-11-26 01:12:00,
2014-11-25 17:17:00,48.7,45.0,30.42,SSE,165,0.0,0.0,87,0.00,,,0.00,meteobridge,2014-11-26 01:17:00,
2014-11-25 17:22:00,48.7,45.0,30.42,SSE,165,0.0,0.0,87,0.00,,,0.00,meteobridge,2014-11-26 01:22:00,
2014-11-25 17:27:00,48.6,44.8,30.42,SSE,165,0.0,0.0,87,0.00,,,0.00,meteobridge,2014-11-26 01:27:00,
2014-11-25 17:32:00,48.4,45.0,30.42,SSE,165,0.0,0.0,88,0.00,,,0.00,meteobridge,2014-11-26 01:32:00,
2014-11-25 17:37:00,48.2,44.8,30.43,SSE,165,0.0,0.0,88,0.00,,,0.00,meteobridge,2014-11-26 01:37:00,
2014-11-25 17:42:00,48.0,44.6,30.43,SSE,165,0.0,0.0,88,0.00,,,0.00,meteobridge,2014-11-26 01:42:00,
2014-11-25 17:47:00,47.8,44.8,30.43,SSE,165,0.0,1.0,89,0.00,,,0.00,meteobridge,2014-11-26 01:47:00,
2014-11-25 17:52:00,47.7,44.2,30.43,SSE,165,0.0,0.0,88,0.00,,,0.00,meteobridge,2014-11-26 01:52:00,
2014-11-25 17:57:00,47.7,44.2,30.43,SSE,165,0.0,0.0,88,0.00,,,0.00,meteobridge,2014-11-26 01:57:00,
2014-11-25 18:02:00,47.7,44.1,30.42,SSE,165,0.0,0.0,87,0.00,,,0.00,meteobridge,2014-11-26 02:02:00,
2014-11-25 18:07:00,47.7,44.2,30.43,SSE,165,0.0,0.0,88,0.00,,,0.00,meteobridge,2014-11-26 02:07:00,
2014-11-25 18:13:00,47.7,44.1,30.43,SSE,165,0.0,0.0,87,0.00,,,0.00,meteobridge,2014-11-26 02:13:00,
2014-11-25 18:18:00,47.7,44.1,30.43,SSE,165,0.0,0.0,87,0.00,,,0.00,meteobridge,2014-11-26 02:18:00,
2014-11-25 18:23:00,47.7,44.1,30.42,SSE,165,0.0,0.0,87,0.00,,,0.00,meteobridge,2014-11-26 02:23:00,
2014-11-25 18:28:00,47.7,44.1,30.43,SSE,165,0.0,0.0,87,0.00,,,0.00,meteobridge,2014-11-26 02:28:00,
2014-11-25 18:33:00,47.7,44.1,30.43,SSE,165,0.0,0.0,87,0.00,,,0.00,meteobridge,2014-11-26 02:33:00,
2014-11-25 18:38:00,47.7,43.7,30.43,SSE,165,0.0,0.0,86,0.00,,,0.00,meteobridge,2014-11-26 02:38:00,
2014-11-25 18:43:00,47.5,43.5,30.43,SSE,165,0.0,0.0,86,0.00,,,0.00,meteobridge,2014-11-26 02:43:00,
2014-11-25 18:48:00,47.5,43.5,30.43,SSE,165,0.0,0.0,86,0.00,,,0.00,meteobridge,2014-11-26 02:48:00,
2014-11-25 18:53:00,47.5,43.5,30.43,SSE,165,0.0,0.0,86,0.00,,,0.00,meteobridge,2014-11-26 02:53:00,
2014-11-25 18:58:00,47.3,43.0,30.43,SSE,165,0.0,0.0,85,0.00,,,0.00,meteobridge,2014-11-26 02:58:00,
2014-11-25 19:03:00,47.1,42.8,30.43,SSE,165,0.0,0.0,85,0.00,,,0.00,meteobridge,2014-11-26 03:03:00,
2014-11-25 19:08:00,47.1,43.2,30.43,SSE,165,0.0,0.0,86,0.00,,,0.00,meteobridge,2014-11-26 03:08:00,
2014-11-25 19:13:00,47.1,43.2,30.43,SSE,165,0.0,0.0,86,0.00,,,0.00,meteobridge,2014-11-26 03:13:00,
2014-11-25 19:18:00,47.1,43.2,30.43,SSE,165,0.0,0.0,86,0.00,,,0.00,meteobridge,2014-11-26 03:18:00,
2014-11-25 19:23:00,47.1,43.2,30.43,SSE,165,0.0,0.0,86,0.00,,,0.00,meteobridge,2014-11-26 03:23:00,
2014-11-25 19:28:00,46.9,43.0,30.43,SSE,165,0.0,0.0,86,0.00,,,0.00,meteobridge,2014-11-26 03:28:00,
2014-11-25 19:33:00,46.9,43.0,30.43,SSE,165,0.0,0.0,86,0.00,,,0.00,meteobridge,2014-11-26 03:33:00,
2014-11-25 19:38:00,46.9,43.3,30.43,SSE,165,0.0,0.0,87,0.00,,,0.00,meteobridge,2014-11-26 03:38:00,
2014-11-25 19:43:00,46.9,43.3,30.43,SSE,165,0.0,0.0,87,0.00,,,0.00,meteobridge,2014-11-26 03:43:00,
2014-11-25 19:48:00,46.9,43.3,30.43,SSE,165,0.0,0.0,87,0.00,,,0.00,meteobridge,2014-11-26 03:48:00,
2014-11-25 19:53:00,46.9,43.0,30.43,SSE,165,0.0,0.0,86,0.00,,,0.00,meteobridge,2014-11-26 03:53:00,
2014-11-25 19:58:00,46.9,43.0,30.43,SSE,165,0.0,0.0,86,0.00,,,0.00,meteobridge,2014-11-26 03:58:00,
2014-11-25 20:03:00,46.9,42.6,30.43,SSE,165,0.0,0.0,85,0.00,,,0.00,meteobridge,2014-11-26 04:03:00,
2014-11-25 20:08:00,46.9,42.6,30.43,SSE,165,0.0,0.0,85,0.00,,,0.00,meteobridge,2014-11-26 04:08:00,
2014-11-25 20:13:00,46.9,42.6,30.43,SSE,165,0.0,0.0,85,0.00,,,0.00,meteobridge,2014-11-26 04:13:00,
2014-11-25 20:18:00,46.9,42.6,30.43,SSE,165,0.0,0.0,85,0.00,,,0.00,meteobridge,2014-11-26 04:18:00,
2014-11-25 20:23:00,46.9,42.6,30.43,SSE,165,0.0,0.0,85,0.00,,,0.00,meteobridge,2014-11-26 04:23:00,
2014-11-25 20:28:00,46.9,43.0,30.43,SSE,165,0.0,0.0,86,0.00,,,0.00,meteobridge,2014-11-26 04:28:00,
2014-11-25 20:33:00,46.9,42.6,30.43,SSE,165,0.0,0.0,85,0.00,,,0.00,meteobridge,2014-11-26 04:33:00,
2014-11-25 20:38:00,46.9,42.6,30.43,SSE,165,0.0,0.0,85,0.00,,,0.00,meteobridge,2014-11-26 04:38:00,
2014-11-25 20:43:00,46.9,42.6,30.43,SSE,165,0.0,0.0,85,0.00,,,0.00,meteobridge,2014-11-26 04:43:00,
2014-11-25 20:49:00,46.9,42.6,30.43,SSE,165,0.0,0.0,85,0.00,,,0.00,meteobridge,2014-11-26 04:49:00,
2014-11-25 20:54:00,46.9,42.4,30.43,SSE,165,0.0,0.0,84,0.00,,,0.00,meteobridge,2014-11-26 04:54:00,
2014-11-25 20:59:00,46.9,42.1,30.43,SSE,165,0.0,0.0,83,0.00,,,0.00,meteobridge,2014-11-26 04:59:00,
2014-11-25 21:04:00,46.9,42.1,30.43,SSE,165,0.0,0.0,83,0.00,,,0.00,meteobridge,2014-11-26 05:04:00,
2014-11-25 21:09:00,46.9,42.4,30.43,SSE,165,0.0,0.0,84,0.00,,,0.00,meteobridge,2014-11-26 05:09:00,
2014-11-25 21:14:00,46.9,42.1,30.42,SSE,165,0.0,0.0,83,0.00,,,0.00,meteobridge,2014-11-26 05:14:00,
2014-11-25 21:19:00,46.9,42.1,30.42,SSE,165,0.0,0.0,83,0.00,,,0.00,meteobridge,2014-11-26 05:19:00,
2014-11-25 21:24:00,46.9,41.7,30.42,SSE,165,0.0,0.0,82,0.00,,,0.00,meteobridge,2014-11-26 05:24:00,
2014-11-25 21:29:00,46.9,42.1,30.43,SSE,165,0.0,0.0,83,0.00,,,0.00,meteobridge,2014-11-26 05:29:00,
2014-11-25 21:34:00,46.9,42.1,30.43,SSE,165,0.0,0.0,83,0.00,,,0.00,meteobridge,2014-11-26 05:34:00,
2014-11-25 21:39:00,46.8,41.9,30.42,SSE,165,0.0,0.0,83,0.00,,,0.00,meteobridge,2014-11-26 05:39:00,
2014-11-25 21:44:00,46.8,41.9,30.42,SSE,165,0.0,0.0,83,0.00,,,0.00,meteobridge,2014-11-26 05:44:00,
2014-11-25 21:49:00,46.8,41.9,30.42,SSE,165,0.0,0.0,83,0.00,,,0.00,meteobridge,2014-11-26 05:49:00,
2014-11-25 21:54:00,46.9,42.1,30.42,SSE,165,0.0,0.0,83,0.00,,,0.00,meteobridge,2014-11-26 05:54:00,
2014-11-25 21:59:00,46.9,42.1,30.42,SSE,165,0.0,0.0,83,0.00,,,0.00,meteobridge,2014-11-26 05:59:00,
2014-11-25 22:04:00,46.9,42.1,30.42,SSE,165,0.0,0.0,83,0.00,,,0.00,meteobridge,2014-11-26 06:04:00,
2014-11-25 22:09:00,46.9,42.1,30.42,SSE,165,0.0,0.0,83,0.00,,,0.00,meteobridge,2014-11-26 06:09:00,
2014-11-25 22:14:00,46.9,42.1,30.42,SSE,165,0.0,0.0,83,0.00,,,0.00,meteobridge,2014-11-26 06:14:00,
2014-11-25 22:19:00,46.9,42.1,30.42,SSE,165,0.0,0.0,83,0.00,,,0.00,meteobridge,2014-11-26 06:19:00,
2014-11-25 22:24:00,47.1,41.9,30.42,SSE,165,0.0,0.0,82,0.00,,,0.00,meteobridge,2014-11-26 06:24:00,
2014-11-25 22:30:00,47.1,41.9,30.42,SSE,165,0.0,0.0,82,0.00,,,0.00,meteobridge,2014-11-26 06:30:00,
2014-11-25 22:35:00,47.1,42.3,30.42,SSE,165,0.0,0.0,83,0.00,,,0.00,meteobridge,2014-11-26 06:35:00,
2014-11-25 22:40:00,47.1,42.3,30.42,SSE,165,0.0,0.0,83,0.00,,,0.00,meteobridge,2014-11-26 06:40:00,
2014-11-25 22:45:00,47.1,42.6,30.42,SSE,165,0.0,0.0,84,0.00,,,0.00,meteobridge,2014-11-26 06:45:00,
2014-11-25 22:50:00,47.1,42.3,30.42,SSE,165,0.0,0.0,83,0.00,,,0.00,meteobridge,2014-11-26 06:50:00,
2014-11-25 22:55:00,47.1,42.3,30.42,SSE,165,0.0,0.0,83,0.00,,,0.00,meteobridge,2014-11-26 06:55:00,
2014-11-25 23:00:00,47.1,42.3,30.42,SSE,165,0.0,0.0,83,0.00,,,0.00,meteobridge,2014-11-26 07:00:00,
2014-11-25 23:05:00,47.3,42.4,30.41,SSE,165,0.0,0.0,83,0.00,,,0.00,meteobridge,2014-11-26 07:05:00,
2014-11-25 23:10:00,47.3,42.4,30.41,SSE,165,0.0,0.0,83,0.00,,,0.00,meteobridge,2014-11-26 07:10:00,
2014-11-25 23:15:00,47.3,42.4,30.41,SSE,165,0.0,0.0,83,0.00,,,0.00,meteobridge,2014-11-26 07:15:00,
2014-11-25 23:20:00,47.3,42.4,30.41,SSE,165,0.0,0.0,83,0.00,,,0.00,meteobridge,2014-11-26 07:20:00,
2014-11-25 23:25:00,47.3,42.4,30.41,SSE,165,0.0,0.0,83,0.00,,,0.00,meteobridge,2014-11-26 07:25:00,
2014-11-25 23:30:00,47.3,42.4,30.41,SSE,165,0.0,0.0,83,0.00,,,0.00,meteobridge,2014-11-26 07:30:00,
2014-11-25 23:35:00,47.3,42.4,30.41,SSE,165,0.0,0.0,83,0.00,,,0.00,meteobridge,2014-11-26 07:35:00,
2014-11-25 23:40:00,47.1,42.3,30.41,SSE,165,0.0,0.0,83,0.00,,,0.00,meteobridge,2014-11-26 07:40:00,
2014-11-25 23:45:00,47.1,42.3,30.40,SSE,165,0.0,0.0,83,0.00,,,0.00,meteobridge,2014-11-26 07:45:00,
2014-11-25 23:50:00,47.1,41.9,30.40,SSE,165,0.0,0.0,82,0.00,,,0.00,meteobridge,2014-11-26 07:50:00,